Date,TemperatureHighF,TemperatureAvgF,TemperatureLowF,DewpointHighF,DewpointAvgF,DewpointLowF,HumidityHigh,HumidityAvg,HumidityLow,PressureMaxIn,PressureMinIn,WindSpeedMaxMPH,WindSpeedAvgMPH,GustSpeedMaxMPH,PrecipitationSumIn
2013-1-1,33,24,19,21,16,12,90,74,50,30.32,30.16,17,6,0,0.01
2013-1-2,27,23,21,17,7,-1,86,51,34,30.45,30.29,22,9,0,0.00
2013-1-3,43,26,15,15,3,-8,51,38,12,30.44,30.27,5,1,0,0.00
2013-1-4,47,33,25,11,8,1,52,36,16,30.27,30.11,12,3,0,0.00
2013-1-5,35,28,19,18,13,0,71,52,38,30.29,30.15,12,4,0,0.00
2013-1-6,50,35,22,19,9,-11,59,36,8,30.21,29.90,6,1,0,0.00
2013-1-7,41,30,23,19,15,11,64,53,33,29.97,29.73,6,1,0,0.00
2013-1-8,41,35,22,19,14,10,68,43,29,30.07,29.75,14,4,0,0.00
2013-1-9,57,43,23,28,18,11,66,37,18,30.07,29.69,11,2,0,0.00
2013-1-10,51,35,16,22,16,10,91,50,28,29.69,29.42,10,2,0,0.00
2013-1-11,15,4,-1,12,0,-5,87,83,80,30.27,29.54,26,11,0,0.00
2013-1-12,7,4,-1,3,0,-5,85,82,80,30.43,30.27,13,3,0,0.00
2013-1-13,9,6,5,2,1,0,81,78,70,30.43,30.40,11,6,0,0.00
2013-1-15,39,34,26,30,26,21,86,73,48,30.27,30.13,19,7,0,0.01
2013-1-16,44,38,26,22,16,11,76,43,26,30.32,30.09,16,5,0,0.00
2013-1-17,48,34,24,23,15,4,69,48,16,30.39,30.09,10,2,0,0.00
2013-1-18,53,49,43,13,5,2,26,17,12,30.09,29.82,19,7,0,0.00
2013-1-19,44,37,24,20,10,0,72,37,16,30.12,29.88,15,4,0,0.00
2013-1-20,43,22,15,17,13,1,91,74,17,30.42,30.07,21,5,0,0.00
2013-1-21,40,26,14,19,14,9,91,65,33,30.38,30.13,8,1,0,0.00
2013-1-22,44,34,26,15,8,0,49,35,16,30.17,30.09,8,2,0,0.00
2013-1-23,50,34,28,20,13,1,61,42,13,30.19,29.98,7,1,0,0.00
2013-1-24,54,44,26,23,16,-1,77,37,11,30.04,29.84,12,3,0,0.00
2013-1-25,46,34,25,22,18,14,78,53,31,30.12,29.96,5,1,0,0.00
2013-1-26,50,40,32,25,22,19,63,50,34,29.96,29.66,8,2,0,0.00
2013-1-27,39,31,25,28,25,21,91,78,52,29.82,29.61,22,3,0,0.01
2013-1-28,25,21,13,23,17,10,90,84,64,29.91,29.81,10,2,0,0.00
2013-1-29,21,12,-3,16,6,-7,87,78,58,30.26,29.86,21,5,0,0.00
2013-1-30,27,19,-1,25,16,-4,93,88,72,30.20,30.04,16,5,0,0.01
2013-1-31,27,18,2,26,16,-1,94,91,85,30.32,30.12,14,4,0,0.00